Terminal Aerodrome Forecast
Issued by NWS

Home | Current Version | Previous Version | Graphics & Text | Print | Product List | Glossary On
Versions: 1 2 3 4 5 6 7 8 9 10 11 12 13 14 15 16 17 18 19 20
228
FTUS43 KBIS 020520
TAFMOT
TAF
KMOT 020520Z 0206/0306 VRB03KT P6SM OVC015
     FM021800 20005KT P6SM OVC025
     FM030000 18004KT P6SM BKN015=

USA.gov is the U.S. government's official web portal to all federal, state and local government web resources and services.